Regional Weather Roundup
Issued by NWS Upton, NY

Current Version | Previous Version | Graphics & Text | Print | Product List | Glossary On
Versions: 1 2 3 4 5 6 7 8 9 10 11 12 13 14 15 16 17 18 19 20 21 22 23 24 25 26 27 28 29 30 31 32 33 34 35 36 37 38 39 40 41 42 43 44 45 46 47 48 49 50
000
ASUS41 KOKX 112104
RWROKX

REGIONAL WEATHER ROUNDUP
NATIONAL WEATHER SERVICE NEW YORK NY
400 PM EST THU FEB 11 2016

NOTE: "FAIR" INDICATES FEW OR NO CLOUDS BELOW 12,000 FEET WITH NO
SIGNIFICANT WEATHER AND/OR OBSTRUCTIONS TO VISIBILITY.

NYZ071-072-176-178-NJZ106-104-112200-
NEW YORK CITY METRO AREA


CITY           SKY/WX    TMP DP  RH WIND       PRES   REMARKS
CENTRAL PARK   CLOUDY    24   1  36 W10G24    29.97R WCI  14
LAGUARDIA APRT PTSUNNY   26   3  37 W25G39    29.95R WCI  11
KENNEDY INTL   MOSUNNY   26   6  42 W24G33    29.97R WCI  11
NEWARK/LIBERTY FLURRIES  24   9  52 W21G26    29.97R WCI   9
BRNX BOT. GARD   N/A     27  -2  28 W2        29.94R
TETERBORO      PTSUNNY   24  -1  33 NW20G29   29.96R WCI  10
$$

NYZ177-179-078>081-112200-
LONG ISLAND NEW YORK

CITY           SKY/WX    TMP DP  RH WIND       PRES   REMARKS
FARMINGDALE    CLOUDY    25   1  35 NW18G33   29.93R WCI  11
ISLIP          PTSUNNY   24   0  35 W28G37    29.91R WCI   7
SHIRLEY        PTSUNNY   24   1  36 W26G38    29.91R WCI   8
RIVERHEAD        N/A     27  -8  22 W10       29.87R WCI  17
WESTHAMPTON    PTSUNNY   22   2  42 W22G31    29.90R WCI   6
EAST HAMPTON   CLOUDY    24   4  43 W20G28    29.85R WCI   9
MONTAUK POINT    N/A     24   7  48 W18G33    29.86R WCI  10
$$

NYZ052-065-067-112200-
HUDSON VALLEY

CITY           SKY/WX    TMP DP  RH WIND       PRES   REMARKS
WHITE PLAINS   PTSUNNY   21  -2  36 W25G36    29.90R WCI   4
NEWBURGH       PTSUNNY   19  -2  38 NW28G44   29.91R WCI   1
MONTGOMERY     MOSUNNY   21  -2  36 NW18G33   29.93R WCI   6
POUGHKEEPSIE   CLOUDY    23  -4  30 W17G29    29.93R WCI   9
ALBANY         PTSUNNY   14  -2  49 W24G37    29.93R WCI  -5
$$

NJZ001-105-106-008-010-013-015-019>022-104-112200-
NEW JERSEY

CITY           SKY/WX    TMP DP  RH WIND       PRES   REMARKS
NEWARK/LIBERTY FLURRIES  24   9  52 W21G26    29.97R WCI   9
TETERBORO      PTSUNNY   24  -1  33 NW20G29   29.96R WCI  10
CALDWELL       CLOUDY    24  -2  32 NW20G28   29.97R WCI  10
MORRISTOWN     NOT AVBL
SOMERVILLE     CLOUDY    24   3  40 W16G28    29.98R WCI  11
SUSSEX         CLOUDY    21  -3  35 W14G25    29.95R WCI   8
ANDOVER          N/A     21  -5  31 NW8G20    29.95R WCI  11
TRENTON        PTSUNNY   24   2  38 W10G24    30.01R WCI  14
MILLVILLE      PTSUNNY   27   4  37 NW25G33   30.08R WCI  12
ATLANTIC CITY  CLOUDY    25   3  38 W21G32    30.05R WCI  11
WRIGHTSTOWN    MOSUNNY   26   1  34 NW22G31   30.00R WCI  11
TOMS RIVER     PTSUNNY   25   0  33 W23G31    30.01R WCI  10
BELMAR         CLOUDY    25   0  33 W24G30    29.98R WCI   9
$$

PAZ047>061-062-071-112200-
EASTERN PENNSYLVANIA

CITY           SKY/WX    TMP DP  RH WIND       PRES   REMARKS
PHILADELPHIA   PTSUNNY   25  -2  31 W25G32    30.07R WCI   9
ALLENTOWN      PTSUNNY   21   8  57 W17G28    30.01R WCI   7
SCRANTON       CLOUDY    18  -1  43 NW23G30   29.95R WCI   0
$$

CTZ002-004>006-009-010-012-RIZ004-006-007-MAZ004-011-015-112200-
SOUTHERN NEW ENGLAND
 IN CT

CITY           SKY/WX    TMP DP  RH WIND       PRES   REMARKS
BRADLEY INTL   PTSUNNY   18   5  57 NW24G36   29.86R WCI   0
HARTFORD       CLOUDY    22   4  46 NW17G26   29.88R WCI   8
DANBURY        PTSUNNY   20  -5  33 W18G35    29.90R WCI   5
WTRBRY/OXFORD  PTSUNNY   19  -6  32 W14G29    29.84R WCI   6
BRIDGEPORT     CLOUDY    25   0  33 W28G45    29.91R WCI   9
MERIDEN        CLOUDY    23  -2  33 W12G25    29.88R WCI  12
NEW HAVEN      CLOUDY    24   2  38 NW16G25   29.89R WCI  11
CHESTER        FLURRIES  23   3  42 W7G24     29.85R WCI  15
GROTON         PTSUNNY   24   3  40 W23G33    29.84R WCI   9
WILLIMANTIC    FLURRIES  22   3  44 W12G28    29.84R WCI  10

 IN RI

CITY           SKY/WX    TMP DP  RH WIND       PRES   REMARKS
PROVIDENCE     PTSUNNY   22   2  42 W21G28    29.81R WCI   6
BLOCK ISLAND   PTSUNNY   25   3  39 W22G29    29.81R WCI  10
WESTERLY       CLOUDY    23   1  38 NW10G21   29.84R WCI  12

 IN MA

CITY           SKY/WX    TMP DP  RH WIND       PRES   REMARKS
BOSTON         PTSUNNY   24   2  38 W24G32    29.76R WCI   8
WORCESTER      FLURRIES  16   1  51 W16G32    29.74R WCI   1
WESTFIELD      LGT SNOW  17   6  62 NW26      29.86R WCI  -2
PROVINCETOWN   PTSUNNY   26  10  50 W23G32    29.74R WCI  11
NANTUCKET      CLOUDY    27  10  49 W18G28    29.76R WCI  14
$$

ANZ330-335-338-340-345-350-353-355-112200-
COASTAL MARINE OBSERVATIONS


STATION/POSITION TIME  SKY/WX   TEMP    WIND        PRES    VSBY  WAVE
                                AIR SEA DIR/SP/G                  HT/PER
                 (UTC)          (F)     (DEG/KT/KT) (MB)    (MI)  (FT/S)
NY HARB ENTRANCE 1950            26 43  280/ 29/ 35 1012.7          5/ 5
4S FIRE IS       NOT AVBL
20S FIRE ISLAND  1950            27 44  280/ 27/ 35 1012.2          8/ 6
GREAT SOUTH BAY  NOT AVBL
23SW MTP         2050            27 46  280/ 29/ 37 1010.3          8/ 7
HUDSON CANYON    1950            29 48              1012.4         11/ 7
KINGS POINT      2000            25 37  360/ 21/ 28 1012.8
EXECUTION ROCKS  NOT AVBL
CENTRAL LI SOUND NOT AVBL
EASTERN LI SOUND NOT AVBL
ROBBINS REEF     2000            23     290/ 28/ 35 1013.0
$$


>>>>>>>>>>>>>>>>>>>>>>>>>>>> KEY <<<<<<<<<<<<<<<<<<<<<<<<<<<
>                                                          <
>     SKY/WX - SKY CONDITION/PRESENT WEATHER               <
>     TMP    - TEMPERATURE IN FAHRENHEIT                   <
>     DP     - DEWPOINT IN FAHRENHEIT                      <
>     RH     - RELATIVE HUMIDITY IN PERCENT                <
>     WIND   - DIRECTION AND SPEED IN MPH                  <
>     PRES   - MEAN SEA LEVEL PRESSURE IN INCHES OF HG     <
>     WCI    - WIND CHILL INDEX                            <
>     VSB    - VISIBILITY IN MILES                         <
>     HX     - HEAT INDEX                                  <
>     TC     - TEMPERATURE IN CELSIUS                      <
>     VRB    - VARIABLE WIND DIRECTION                     <
>                                                          <
>>>>>>>>>>>>>>>>>>>>>>>>>>>> KEY <<<<<<<<<<<<<<<<<<<<<<<<<<<





USA.gov is the U.S. government's official web portal to all federal, state and local government web resources and services.